Weather History for PHNY - May, 2012

Change the Weather History Date:

Sunday, May 20, 2012

  Actual Average (WUND) Record (WUND)
Temperature  
Mean Temperature 72 °F -  
Max Temperature 81 °F - - (-1)
Min Temperature 64 °F - - (-1)
Cooling Degree Days 8    
Growing Degree Days 22 (Base 50)    
Moisture  
Dew Point 64 °F    
Average Humidity 76    
Maximum Humidity 90    
Minimum Humidity 54    
Precipitation  
Precipitation 0.01 in - - ()
Sea Level Pressure  
Sea Level Pressure 30.07 in    
Wind  
Wind Speed 12 mph (NE)    
Max Wind Speed 23 mph    
Max Gust Speed -    
Visibility 9 miles    
Events Rain    
Averages and records for this station are not official NWS values.
T = Trace of Precipitation, MM = Missing Value Source: NWS Daily Summary

Daily Weather History Graph

Daily Weather History Graph

Search for Another Location

Airport or City:

Trip Planner

Search our weather history database for the weather conditions in past years. The results will help you decide how hot, cold, wet, or windy it might be!

Date:

Astronomy

May. 20, 2012 Rise Set
Actual Time 5:48 AM HST 7:00 PM HST
Civil Twilight 5:24 AM HST 7:24 PM HST
Nautical Twilight 4:55 AM HST 7:53 PM HST
Astronomical Twilight 4:26 AM HST 8:22 PM HST
Moon 5:36 AM HST (5/20) 7:07 PM HST (5/20)
Length of Visible Light 14h 00m
Length of Day
13h 11m
Waning Crescent, 0% of the Moon is Illuminated
May 20
Waning Crescent
May 20
New
May 28
First Quarter
Jun 4
Full
Jun 11
Last Quarter

Hourly Weather History & Observations

Time (HST) Temp. Heat Index Dew Point Humidity Pressure Visibility Wind Dir Wind Speed Gust Speed Precip Events Conditions
12:56 AM 68.0 °F - 61.0 °F 78% 30.03 in 10.0 mi NNE 16.1 mph - N/A   Clear
1:56 AM 66.9 °F - 61.9 °F 84% 30.01 in 10.0 mi NNE 15.0 mph - N/A   Clear
2:56 AM 64.9 °F - 59.9 °F 84% 30.01 in 10.0 mi ENE 8.1 mph - N/A   Clear
3:56 AM 68.0 °F - 61.0 °F 78% 30.01 in 10.0 mi ENE 8.1 mph - N/A   Clear
4:56 AM 66.9 °F - 61.0 °F 81% 30.01 in 10.0 mi East 10.4 mph - N/A   Clear
5:56 AM 66.9 °F - 61.9 °F 84% 30.02 in 10.0 mi NE 12.7 mph - N/A   Clear
6:56 AM 70.0 °F - 63.0 °F 78% 30.05 in 10.0 mi NE 10.4 mph - N/A   Clear
7:56 AM 73.9 °F - 63.0 °F 68% 30.07 in 10.0 mi NE 12.7 mph - N/A   Partly Cloudy
8:56 AM 75.9 °F - 63.9 °F 66% 30.08 in 10.0 mi NNE 11.5 mph - N/A   Clear
9:56 AM 81.0 °F 82.2 °F 63.0 °F 54% 30.08 in 10.0 mi North 8.1 mph - N/A   Scattered Clouds
10:32 AM 78.8 °F - 62.6 °F 57% 30.14 in 10.0 mi Variable 5.8 mph - N/A   Mostly Cloudy
10:56 AM 75.2 °F - 64.4 °F 69% 30.14 in 10.0 mi ENE 9.2 mph - N/A   Overcast
11:56 AM 77.0 °F - 63.9 °F 64% 30.07 in 10.0 mi NE 12.7 mph - N/A   Mostly Cloudy
12:56 PM 75.9 °F - 63.9 °F 66% 30.06 in 10.0 mi NE 8.1 mph - 0.00 in Rain Light Rain
1:56 PM 75.2 °F - 64.4 °F 69% 30.12 in 10.0 mi Variable 4.6 mph - N/A   Overcast
2:56 PM 77.0 °F - 63.0 °F 62% 30.05 in 10.0 mi WNW 9.2 mph - 0.00 in   Overcast
3:56 PM 74.8 °F - 61.9 °F 64% 30.04 in 10.0 mi WNW 5.8 mph - 0.00 in   Mostly Cloudy
4:23 PM 73.4 °F - 66.2 °F 78% 30.10 in 2.5 mi NNE 11.5 mph - 0.00 in Rain Heavy Rain
4:30 PM 71.6 °F - 66.2 °F 83% 30.10 in 1.5 mi NE 15.0 mph - 0.00 in Rain Heavy Rain
4:39 PM 71.6 °F - 66.2 °F 83% 30.09 in 2.0 mi NE 16.1 mph - 0.00 in Rain Light Rain
4:46 PM 71.6 °F - 66.2 °F 83% 30.09 in 10.0 mi NE 12.7 mph - 0.00 in Rain Light Rain
4:56 PM 71.6 °F - 66.2 °F 83% 30.09 in 10.0 mi NE 16.1 mph - N/A   Overcast
5:56 PM 72.0 °F - 65.8 °F 81% 30.05 in 10.0 mi NE 18.4 mph - 0.00 in   Clear
6:56 PM 70.0 °F - 64.9 °F 84% 30.06 in 10.0 mi NE 23.0 mph - 0.01 in   Clear
7:56 PM 68.9 °F - 64.9 °F 87% 30.07 in 10.0 mi NE 16.1 mph - N/A   Clear
8:56 PM 68.9 °F - 64.9 °F 87% 30.09 in 10.0 mi NE 13.8 mph - N/A   Clear
9:56 PM 68.9 °F - 63.9 °F 84% 30.10 in 10.0 mi NNE 11.5 mph - N/A   Clear
10:56 PM 68.0 °F - 63.9 °F 87% 30.12 in 10.0 mi NE 9.2 mph - N/A   Clear
11:56 PM 66.9 °F - 63.9 °F 90% 30.11 in 10.0 mi NNE 9.2 mph - N/A   Partly Cloudy